;H (mm);Q (m3/s);stage (m)
;;;
20/11/2013 01:30;0.00;0.00;0.01
20/11/2013 01:45;0.00;0.00;0.01
20/11/2013 02:00;0.20;0.00;0.01
20/11/2013 02:15;0.00;0.00;0.01
20/11/2013 02:30;0.00;0.00;0.01
20/11/2013 02:45;0.00;0.00;0.01
20/11/2013 03:00;0.40;0.00;0.01
20/11/2013 03:15;0.10;0.00;0.01
20/11/2013 03:30;0.30;0.00;0.01
20/11/2013 03:45;0.60;0.00;0.01
20/11/2013 04:00;0.00;0.00;0.01
20/11/2013 04:15;0.00;0.00;0.01
20/11/2013 04:30;0.20;0.00;0.01
20/11/2013 04:45;0.00;0.00;0.01
20/11/2013 05:00;0.00;0.00;0.01
20/11/2013 05:15;0.50;0.00;0.01
20/11/2013 05:30;0.70;0.00;0.01
20/11/2013 05:45;1.30;0.00;0.01
20/11/2013 06:00;0.10;0.00;0.01
20/11/2013 06:15;2.50;0.00;0.01
20/11/2013 06:30;1.70;0.00;0.01
20/11/2013 06:45;1.10;0.00;0.01
20/11/2013 07:00;4.50;0.00;0.01
20/11/2013 07:15;4.80;0.51;0.12
20/11/2013 07:30;3.20;0.20;0.07
20/11/2013 07:45;1.70;0.99;0.19
20/11/2013 08:00;0.10;1.15;0.20
20/11/2013 08:15;0.00;0.56;0.13
20/11/2013 08:30;0.00;0.45;0.12
20/11/2013 08:45;0.00;0.42;0.11
20/11/2013 09:00;0.00;0.35;0.10
20/11/2013 09:15;0.00;0.23;0.08
20/11/2013 09:30;0.00;0.26;0.08
20/11/2013 09:45;0.00;0.23;0.08
20/11/2013 10:00;0.00;0.19;0.07
20/11/2013 10:15;0.00;0.16;0.07
20/11/2013 10:30;0.00;0.12;0.06
20/11/2013 10:45;0.00;0.09;0.05
20/11/2013 11:00;0.00;0.07;0.05
20/11/2013 11:15;0.00;0.06;0.04
20/11/2013 11:30;0.00;0.06;0.04
20/11/2013 11:45;0.00;0.04;0.04
20/11/2013 12:00;0.00;0.04;0.03
20/11/2013 12:15;0.00;0.03;0.03
20/11/2013 12:30;0.00;0.02;0.03
20/11/2013 12:45;0.00;0.02;0.03
20/11/2013 13:00;0.00;0.06;0.04
20/11/2013 13:15;0.00;0.05;0.04
20/11/2013 13:30;0.00;0.04;0.03
20/11/2013 13:45;0.00;0.04;0.03
20/11/2013 14:00;0.00;0.04;0.03
20/11/2013 14:15;0.00;0.03;0.03
20/11/2013 14:30;0.00;0.02;0.03
20/11/2013 14:45;0.00;0.02;0.03
20/11/2013 15:00;0.00;0.02;0.03
20/11/2013 15:15;0.00;0.02;0.03
20/11/2013 15:30;0.00;0.01;0.02
20/11/2013 15:45;0.00;0.01;0.02
20/11/2013 16:00;0.00;0.01;0.02
20/11/2013 16:15;0.00;0.01;0.02
20/11/2013 16:30;0.00;0.00;0.02
20/11/2013 16:45;0.00;0.00;0.02
20/11/2013 17:00;0.00;0.00;0.02
20/11/2013 17:15;0.00;0.00;0.02
20/11/2013 17:30;0.00;0.00;0.02
20/11/2013 17:45;0.00;0.00;0.02
20/11/2013 18:00;0.00;0.00;0.02
20/11/2013 18:15;0.00;0.00;0.02
20/11/2013 18:30;0.00;0.00;0.01
20/11/2013 18:45;0.00;0.00;0.01
20/11/2013 19:00;0.00;0.00;0.01
20/11/2013 19:15;0.00;0.00;0.01
20/11/2013 19:30;0.00;0.00;0.01
20/11/2013 19:45;0.00;0.00;0.01
20/11/2013 20:00;0.00;0.00;0.01
20/11/2013 20:15;0.00;0.00;0.01
20/11/2013 20:30;0.00;0.00;0.01
20/11/2013 20:45;0.00;0.00;0.01
20/11/2013 21:00;0.00;0.00;0.01
20/11/2013 21:15;0.00;0.00;0.01
20/11/2013 21:30;0.00;0.00;0.01
20/11/2013 21:45;0.00;0.00;0.01
20/11/2013 22:00;0.00;0.00;0.01
20/11/2013 22:15;0.00;0.00;0.01
20/11/2013 22:30;0.00;0.00;0.01
20/11/2013 22:45;0.00;0.00;0.01
20/11/2013 23:00;0.00;0.00;0.01
20/11/2013 23:15;0.00;0.00;0.01
20/11/2013 23:30;0.00;0.00;0.01
20/11/2013 23:45;0.00;0.00;0.01
21/11/2013 00:00;0.00;0.00;0.01
